Regional Weather Roundup
Issued by NWS Kansas City/Pleasant Hill, MO

Home | Current Version | Previous Version | Graphics & Text | Print | Product List | Glossary Off
Versions: 1 2 3 4 5 6 7 8 9 10 11 12 13 14 15 16 17 18 19 20 21 22 23 24 25 26 27 28 29 30 31 32 33 34 35 36 37 38 39 40 41 42 43 44 45 46 47 48 49 50

000
ASUS43 KEAX 030304
RWREAX

WEATHER ROUNDUP FOR EASTERN KANSAS AND NORTHWEST MISSOURI
NATIONAL WEATHER SERVICE KANSAS CITY/PLEASANT HILL MO
900 PM CST MON MAR 02 2015

KSZ040-057-103>105-MOZ028-029-037-043-030400-
...KANSAS CITY METROPOLITAN AREA...

CITY           SKY/WX    TMP DP  RH WIND       PRES   REMARKS
K.C. INTL      CLOUDY    33  21  61 SE12      30.10F WCI  24
K.C. DOWNTOWN  CLOUDY    36  21  54 SE6       30.12F WCI  31
LEES SUMMIT    CLOUDY    34  21  59 SE7       30.12F WCI  28
OLATHE - IXD   CLOUDY    33  22  63 SE9       30.10F WCI  25
OLATHE - OJC   CLOUDY    33  21  61 SE7       30.09F WCI  27
LAWRENCE       CLOUDY    33  22  63 SE9       30.10F WCI  25

$$

MOZ001>008-011>017-020>025-030>033-038>040-044>046-053-054-030400-
...NORTHERN AND CENTRAL MISSOURI...

CITY           SKY/WX    TMP DP  RH WIND       PRES   REMARKS
ST. JOSEPH     CLOUDY    33  20  58 SE13      30.10F WCI  24
MOSBY          CLOUDY    34  23  64 SE7       30.13F WCI  28
WARRENSBURG    CLOUDY    34  23  64 SE5       30.15S WCI  30
WHITEMAN AFB   CLOUDY    34  23  64 SE7       30.13F WCI  28
CLINTON        CLOUDY    36  27  69 SE8       30.13F WCI  29
SEDALIA        CLOUDY    34  22  61 SE13      30.14F WCI  25
WARSAW         NOT AVBL
MARSHALL       CLOUDY    36  25  64 SE8       30.19F WCI  29
CHILLICOTHE      N/A     33  21  61 SE7       30.16F WCI  27
MOBERLY        CLOUDY    32  19  59 SE12      30.19F WCI  23
KIRKSVILLE     CLOUDY    31  23  72 SE10      30.18F WCI  22

$$

MOZ041-047>049-056>058-063>065-088>090-097-030400-
...EASTERN AND SOUTHERN MISSOURI...

CITY           SKY/WX    TMP DP  RH WIND       PRES   REMARKS
ST. LOUIS INTL CLOUDY    32  20  61 E9        30.27F WCI  24
SPIRIT OF STL  CLOUDY    32  19  58 SE5       30.27F WCI  27
COLUMBIA       CLOUDY    33  20  58 SE13      30.18F WCI  24
JEFFERSON CITY CLOUDY    33  21  61 E10       30.22F WCI  25
MEXICO         CLOUDY    32  27  80 SE8       30.21F WCI  25
ROLLA          CLOUDY    33  20  58 SE9       30.19F WCI  25
LEBANON        CLOUDY    36  21  55 SE15      30.16F WCI  26
OSAGE BEACH    CLOUDY    37  19  48 SE6       30.19F WCI  33
SPRINGFIELD    CLOUDY    34  23  64 SE22      30.13F WCI  22
BRANSON        CLOUDY    32  23  69 SE8       30.19F WCI  25
NEVADA         CLOUDY    34  28  80 SE8       30.13F WCI  27
JOPLIN         CLOUDY    35  28  75 S9        30.13F WCI  28
WEST PLAINS    CLOUDY    33  18  53 SE10G17   30.22F WCI  25

$$

IAZ060-094-KSZ022-034>040-054-083-096-NEZ052-066-093-030400-
...KANSAS...SOUTHEAST NEBRASKA AND IOWA...

CITY           SKY/WX    TMP DP  RH WIND       PRES   REMARKS
TOPEKA         CLOUDY    34  22  61 SE16G23   30.06F WCI  24
MANHATTAN      CLOUDY    33  25  72 S12       30.03F WCI  24
EMPORIA        CLOUDY    31  29  92 S13G23    30.05F FOG     WCI  21
CHANUTE        CLOUDY    34  28  79 S12       30.11F WCI  25
WICHITA        CLOUDY    32  28  85 S21       30.02F WCI  20
OMAHA          CLOUDY    33  19  56 SE18G25   30.03F WCI  22
LINCOLN        CLOUDY    34  17  50 S18       30.00F WCI  23
FALLS CITY     CLOUDY    34  19  54 SE15      30.05F WCI  24
LAMONI         CLOUDY    31  19  61 SE15      30.12F WCI  20
DES MOINES     CLOUDY    30  17  58 SE10G21   30.14F WCI  21

$$




USA.gov is the U.S. government's official web portal to all federal, state and local government web resources and services.